Wind_Speed
14 14 12 12 13 13 13 14 14 14 13 12 10 10 10 10 10 9 9 8 8 8 8 8 6 6 6 5 4 4 3 2 2 1 1 1 1 1 3 5 5 5 5 6 6 6 7 7 7
13 14 13 13 14 14 14 14 14 14 13 13 11 10 10 10 10 9 9 9 9 8 8 8 7 6 6 5 4 4 3 2 1 1 1 1 1 1 2 2 4 4 4 5 4 5 5 7 7
14 14 13 14 14 14 15 15 15 14 13 13 12 11 11 11 10 9 10 9 9 8 8 8 8 7 6 6 4 3 3 2 1 1 1 1 1 1 2 2 3 4 4 4 4 5 5 5 6
14 14 13 13 14 15 15 15 16 15 13 13 13 12 12 11 11 10 10 10 9 9 9 9 8 8 7 6 5 3 3 2 2 1 1 1 1 1 2 2 3 4 3 3 4 4 4 4 5
13 13 14 13 14 14 14 14 15 15 13 12 12 12 12 12 12 11 11 10 10 10 9 9 8 8 8 7 6 4 3 3 3 2 1 1 0 1 2 2 3 3 3 2 3 3 3 3 4
12 13 13 14 15 14 14 14 14 14 13 13 12 12 12 13 12 11 11 10 10 10 10 9 9 8 8 8 7 6 5 4 4 3 2 2 1 0 1 2 3 2 2 2 2 2 2 3 3
11 12 13 14 15 14 14 14 14 14 13 13 13 12 12 12 12 12 12 11 10 10 10 9 9 9 8 8 8 7 6 5 5 5 4 3 2 1 1 1 1 2 2 1 1 2 3 3 3
10 12 13 14 15 15 14 14 14 14 14 13 13 12 12 12 12 12 12 11 10 10 10 10 9 9 9 8 8 7 7 6 6 6 6 6 5 4 3 2 1 1 2 1 1 2 2 1 2
10 11 13 14 14 14 13 13 14 14 14 14 14 14 13 12 12 12 12 12 10 10 10 10 10 10 9 10 9 9 7 7 7 7 7 7 6 6 5 3 2 1 2 1 1 1 1 1 1
11 11 12 13 13 14 13 13 14 13 13 14 14 14 14 13 12 12 12 12 11 11 11 10 10 10 10 10 10 10 9 8 8 8 8 8 7 7 6 5 4 3 3 2 3 3 2 2 2
12 12 12 12 13 13 13 12 13 13 13 13 13 14 14 13 13 13 12 11 11 11 11 11 10 10 10 10 10 10 9 9 9 8 8 8 8 7 7 6 5 5 4 3 3 3 3 2 2
12 12 12 12 12 13 13 13 13 13 14 13 13 14 13 13 13 12 12 12 11 11 11 11 11 11 11 11 10 10 10 9 9 8 8 9 9 8 7 7 6 6 5 5 4 3 4 3 2
10 11 12 11 11 12 12 12 12 12 13 14 13 14 13 12 13 12 12 12 12 11 11 11 11 11 12 11 10 10 9 8 8 8 8 8 7 7 7 7 6 5 5 5 4 4 3 3 1
8 9 9 10 9 10 11 11 11 12 12 13 13 13 13 13 12 12 12 12 12 12 12 11 11 11 11 11 11 10 10 9 8 8 8 7 7 6 6 6 6 5 4 4 4 4 4 3 2
6 6 7 9 8 8 8 9 10 12 12 12 12 12 12 13 13 12 12 12 11 12 12 12 12 12 11 11 11 11 10 10 9 9 9 8 8 8 7 7 6 7 5 5 5 5 3 3 2
6 6 7 7 6 7 7 10 10 11 12 12 11 11 12 12 13 13 12 12 11 11 12 12 11 11 11 11 11 11 11 10 9 9 9 9 8 8 9 8 7 7 6 5 5 4 4 4 4
7 6 6 6 6 7 7 9 11 12 11 11 11 11 12 12 12 12 12 12 11 11 11 11 11 11 11 11 11 11 10 10 10 9 9 9 9 8 8 8 7 7 6 5 6 5 5 5 5
5 3 4 4 6 6 7 7 9 10 10 9 10 10 11 11 11 11 12 12 11 11 11 11 11 11 11 10 10 10 10 10 10 10 9 9 8 7 8 7 7 7 7 6 7 6 5 5 5
3 1 2 3 3 4 5 6 8 9 9 9 9 9 10 10 10 10 10 10 11 10 10 10 10 10 11 10 10 10 10 10 10 9 10 9 8 8 8 8 8 8 7 7 7 6 5 5 5
2 1 1 1 1 2 3 5 7 8 8 9 10 11 9 9 8 9 9 9 10 10 9 9 10 10 10 10 10 9 10 10 10 9 9 9 8 8 8 8 8 8 7 8 7 6 5 5 5
4 2 1 1 3 4 5 5 6 7 8 9 9 10 9 9 8 7 8 8 9 9 9 9 9 9 9 10 10 9 9 9 10 10 8 8 8 8 8 8 9 8 8 8 8 7 7 6 6
6 4 4 4 4 4 6 7 6 7 8 8 9 9 8 8 7 7 7 7 8 8 8 8 8 8 8 8 9 8 8 9 9 10 9 8 8 8 8 8 9 8 8 9 9 8 8 8 7
6 7 7 7 7 6 6 7 6 7 7 8 8 8 8 7 6 7 7 7 7 8 8 8 8 8 7 7 7 8 8 8 9 9 9 9 8 8 8 8 8 8 8 9 10 10 10 9 9
8 9 9 8 8 7 6 7 7 7 8 8 7 7 8 7 7 7 7 7 7 7 8 8 8 7 7 7 6 7 7 8 8 9 9 9 9 9 9 8 9 9 9 10 11 11 11 10 10
9 10 10 10 10 8 7 7 6 6 6 8 8 8 9 8 8 7 6 7 7 7 8 8 7 7 7 7 7 7 7 8 9 9 10 10 10 9 10 10 10 9 9 10 11 11 11 11 11
9 10 11 12 12 11 10 8 7 5 6 7 8 9 9 9 9 7 7 7 7 7 7 7 8 8 7 7 7 7 7 8 9 9 10 10 10 11 11 11 10 10 10 11 11 12 12 11 11
10 11 11 12 12 12 11 10 8 6 6 6 7 8 9 9 8 7 7 7 8 8 8 8 9 8 8 7 7 7 7 8 9 9 10 11 10 11 11 11 11 10 10 11 12 12 13 12 12
12 12 12 12 12 12 10 9 9 8 7 7 7 7 8 9 9 8 7 7 9 9 9 9 10 9 9 8 8 8 8 9 10 11 11 11 11 12 12 12 11 11 11 12 13 13 14 14 13
13 14 13 13 13 13 12 10 9 9 9 8 8 8 8 10 11 10 9 9 10 11 10 10 10 10 10 10 10 10 10 11 11 12 12 12 13 13 13 12 12 13 13 14 15 15 15 15 15
14 14 14 14 15 13 13 11 9 10 10 10 10 11 10 10 11 12 12 12 12 11 12 12 12 12 12 12 12 12 12 12 12 12 13 14 14 14 14 15 15 15 15 16 16 16 16 16 16
Wind_Direction
81 75 73 65 56 53 53 54 54 51 49 49 47 45 45 44 39 38 42 50 52 48 40 37 34 35 34 37 44 46 44 51 51 44 44 140 194 180 202 201 200 205 208 209 219 226 225 230 232
81 77 72 62 55 53 54 55 54 52 51 50 49 50 48 44 43 45 48 51 53 49 42 40 40 39 39 40 44 50 56 62 52 25 38 109 125 104 135 172 184 188 199 207 219 230 235 239 240
81 75 65 60 55 51 52 52 52 54 51 51 48 48 45 45 49 48 50 52 53 48 44 44 47 47 44 40 35 45 50 51 51 44 65 91 100 118 128 160 186 191 202 220 232 236 239 239 241
74 66 59 57 55 53 53 51 51 51 47 47 48 46 45 48 52 50 51 52 52 50 46 47 47 47 46 45 44 49 59 54 69 69 96 101 118 146 177 184 198 192 196 221 225 232 242 245 250
64 59 58 53 54 53 58 56 50 52 46 43 45 43 43 50 53 52 51 50 48 48 48 47 43 43 45 48 50 52 59 58 70 59 70 73 100 175 175 182 179 184 185 192 208 238 246 254 252
68 63 59 54 54 54 56 56 51 51 50 46 46 45 42 48 51 48 46 44 45 46 49 47 43 44 46 47 47 50 53 54 60 56 49 40 44 78 207 206 200 208 196 201 227 243 241 227 245
64 59 52 51 52 51 51 54 53 52 51 49 46 45 42 44 46 44 42 43 41 43 47 48 43 43 43 42 45 47 49 58 58 56 53 52 61 95 128 150 190 200 192 186 217 250 241 230 235
67 58 49 46 45 45 47 48 51 50 49 47 44 43 41 41 42 42 42 45 44 46 47 46 43 42 40 40 42 42 43 54 55 55 55 56 62 70 80 90 112 160 147 167 225 250 228 238 216
66 55 46 43 43 45 45 48 50 46 44 44 41 40 39 38 39 40 40 43 47 49 49 46 45 41 41 44 45 42 41 51 57 58 61 61 65 70 71 81 94 105 111 139 166 175 75 91 161
67 61 55 51 49 48 43 46 50 44 40 43 41 38 37 38 41 41 43 46 47 48 50 48 46 42 45 46 44 44 50 61 58 60 65 66 69 68 69 84 79 96 95 83 77 80 58 72 116
68 63 62 56 53 52 44 46 48 43 38 41 42 38 37 39 42 43 45 46 45 45 46 48 47 44 45 46 47 50 59 65 62 61 64 64 64 66 67 72 80 86 76 66 66 52 47 75 96
65 64 59 56 56 54 50 48 46 42 38 40 42 40 39 40 42 44 44 43 43 43 47 49 49 48 50 52 55 59 60 62 63 63 64 64 63 62 66 66 68 67 65 68 68 59 52 53 56
74 66 57 54 54 55 50 47 47 42 39 38 38 40 40 40 42 44 44 46 46 45 49 51 51 54 55 56 59 58 59 60 62 62 61 59 55 62 68 60 57 58 60 62 67 60 61 57 25
82 78 64 53 55 55 48 49 45 38 37 37 35 38 41 43 45 44 45 47 48 49 52 54 55 57 57 57 57 56 60 60 60 58 57 58 55 57 54 55 56 49 51 51 52 50 31 32 32
87 89 71 58 49 47 43 45 44 37 34 36 35 38 41 43 45 44 44 47 49 51 52 55 58 60 59 55 51 52 54 55 57 55 56 57 56 55 47 50 50 43 37 33 39 31 19 41 39
94 80 69 54 42 37 35 38 38 35 32 30 31 37 42 42 41 41 43 48 50 49 51 53 55 55 55 53 49 49 50 52 56 55 55 56 54 52 49 44 42 39 35 35 34 32 35 29 26
84 70 59 49 42 36 36 35 33 29 29 26 25 35 42 40 39 40 42 46 47 47 48 49 47 48 50 48 47 44 45 47 47 48 51 51 50 50 46 41 41 39 29 29 28 28 21 18 16
83 57 39 35 38 33 29 26 25 21 22 25 27 33 39 38 38 40 42 43 43 44 47 45 42 43 45 46 46 43 42 42 43 42 46 44 42 41 39 37 36 33 27 24 25 21 18 16 8
93 78 16 21 36 28 20 17 12 16 19 25 29 30 32 34 37 39 40 40 39 39 40 39 39 39 39 42 43 42 39 38 37 37 37 36 37 34 32 32 26 23 18 17 18 16 13 6 354
176 207 334 327 325 349 357 353 356 3 8 13 18 17 21 28 28 33 35 35 34 34 32 31 32 33 33 34 35 37 37 36 35 32 30 31 31 28 24 25 23 18 17 15 12 8 2 354 344
199 214 268 298 287 291 299 326 336 347 357 5 6 8 11 15 20 26 30 31 29 28 27 26 27 29 30 29 29 31 31 28 29 27 22 19 19 19 21 19 17 18 13 6 356 350 348 340 333
215 222 238 253 257 267 286 308 319 331 343 1 4 6 10 10 14 16 20 23 20 21 20 20 22 22 22 22 25 24 24 24 22 18 13 9 8 8 8 6 6 6 3 358 350 343 337 334 329
222 232 240 251 255 262 273 288 304 318 334 346 0 2 3 6 8 4 6 12 11 11 11 15 17 18 18 18 21 19 16 14 13 12 9 7 8 5 360 360 359 356 354 349 346 342 338 330 324
223 233 236 244 253 255 266 279 295 308 332 342 352 351 348 356 359 354 355 1 1 359 357 2 6 5 4 9 13 12 9 8 6 6 2 2 2 2 359 354 351 349 347 346 343 340 336 332 328
225 232 236 240 246 251 260 270 280 285 311 331 338 339 345 347 348 344 348 351 347 348 350 353 357 355 352 358 360 358 357 356 358 359 356 353 354 353 349 346 344 342 340 338 336 335 331 326 325
238 240 244 248 252 252 253 260 268 274 292 311 326 331 340 346 346 342 342 343 339 343 343 344 347 346 344 344 346 343 342 344 344 342 344 343 339 338 336 335 335 334 335 335 332 333 329 323 322
244 247 250 255 261 258 258 260 262 270 282 291 307 321 333 341 341 334 334 336 337 340 338 335 336 333 328 325 327 328 331 328 326 327 330 331 328 328 326 324 323 323 327 330 330 328 327 322 318
243 245 250 257 262 263 262 257 260 266 273 280 285 305 321 330 331 324 320 326 331 332 334 333 332 326 320 317 316 317 317 316 315 315 318 319 322 324 321 317 317 317 318 321 325 323 323 320 316
244 246 250 252 259 265 268 264 258 270 279 283 287 297 311 314 322 323 316 317 322 324 326 327 326 322 317 311 309 312 311 310 309 311 312 315 317 317 318 317 316 316 316 319 320 321 321 321 316
240 245 249 253 257 263 268 269 271 273 278 281 285 288 296 304 307 312 311 309 312 315 316 314 314 316 316 310 310 312 310 309 305 304 306 309 310 313 314 315 313 313 311 311 314 317 317 317 315
Height
5906 5905 5905 5905 5905 5904 5902 5901 5900 5900 5899 5897 5897 5896 5895 5894 5894 5894 5891 5889 5888 5887 5886 5885 5884 5883 5883 5882 5881 5881 5881 5880 5880 5880 5879 5879 5877 5877 5877 5877 5878 5879 5879 5880 5880 5880 5881 5881 5881
5907 5907 5907 5906 5905 5904 5904 5903 5902 5902 5901 5899 5898 5897 5896 5895 5894 5892 5891 5890 5889 5888 5887 5886 5885 5884 5883 5882 5882 5881 5881 5881 5880 5880 5879 5879 5878 5877 5877 5877 5878 5879 5879 5879 5880 5880 5880 5880 5880
5909 5909 5909 5907 5906 5906 5905 5904 5904 5903 5902 5901 5900 5899 5898 5897 5895 5893 5892 5891 5890 5889 5888 5887 5886 5885 5884 5883 5882 5882 5881 5881 5880 5880 5879 5879 5878 5878 5878 5878 5878 5879 5879 5879 5879 5879 5879 5879 5879
5911 5911 5911 5909 5908 5907 5906 5906 5905 5905 5904 5902 5901 5900 5899 5898 5896 5894 5893 5892 5891 5890 5889 5888 5887 5885 5884 5883 5882 5882 5881 5881 5880 5880 5879 5879 5879 5879 5878 5878 5878 5879 5879 5879 5879 5879 5879 5878 5878
5913 5913 5912 5911 5909 5909 5908 5907 5907 5907 5906 5904 5903 5902 5900 5899 5897 5896 5895 5894 5893 5891 5890 5889 5887 5886 5885 5884 5883 5882 5882 5881 5881 5880 5880 5879 5879 5879 5878 5878 5878 5878 5879 5879 5879 5878 5878 5877 5877
5914 5914 5913 5912 5911 5910 5909 5909 5909 5909 5907 5906 5904 5903 5901 5900 5898 5897 5896 5895 5894 5892 5891 5890 5888 5887 5886 5885 5884 5883 5883 5882 5881 5881 5880 5880 5879 5878 5878 5878 5878 5878 5879 5878 5878 5878 5877 5876 5876
5916 5915 5914 5914 5913 5912 5912 5911 5910 5910 5909 5908 5906 5904 5902 5901 5900 5898 5897 5896 5895 5893 5892 5891 5890 5888 5887 5886 5885 5884 5883 5882 5882 5881 5881 5880 5879 5878 5878 5878 5878 5878 5878 5878 5878 5877 5875 5874 5874
5917 5917 5916 5915 5915 5914 5914 5913 5912 5911 5911 5909 5908 5906 5904 5903 5901 5900 5899 5898 5896 5895 5893 5892 5891 5889 5888 5887 5886 5885 5884 5883 5882 5882 5881 5880 5878 5878 5878 5878 5878 5878 5878 5878 5877 5876 5873 5872 5873
5918 5919 5918 5917 5916 5916 5915 5915 5914 5913 5912 5911 5909 5907 5906 5904 5903 5901 5900 5899 5898 5896 5894 5893 5892 5890 5889 5888 5887 5885 5884 5884 5883 5882 5882 5881 5879 5879 5879 5878 5878 5878 5877 5877 5876 5875 5873 5872 5872
5919 5920 5919 5919 5918 5917 5917 5916 5916 5915 5914 5912 5911 5909 5907 5906 5904 5903 5901 5900 5899 5897 5896 5894 5893 5891 5890 5889 5887 5886 5885 5885 5884 5883 5883 5882 5881 5881 5880 5879 5878 5877 5877 5877 5876 5875 5874 5873 5873
5921 5921 5920 5920 5919 5919 5918 5918 5917 5916 5915 5914 5912 5911 5909 5907 5906 5904 5903 5901 5900 5898 5897 5896 5894 5893 5891 5890 5889 5888 5887 5886 5885 5884 5884 5883 5883 5882 5881 5881 5880 5879 5878 5878 5877 5876 5876 5875 5875
5923 5922 5922 5921 5921 5920 5920 5919 5919 5918 5917 5916 5914 5912 5911 5909 5907 5906 5904 5903 5901 5899 5898 5897 5896 5894 5893 5891 5890 5889 5888 5888 5887 5886 5885 5884 5883 5883 5883 5882 5881 5880 5879 5878 5878 5878 5877 5877 5876
5924 5923 5923 5922 5922 5922 5921 5921 5920 5919 5918 5917 5915 5914 5912 5911 5909 5907 5906 5904 5902 5901 5899 5898 5897 5896 5894 5893 5892 5891 5890 5889 5888 5887 5886 5885 5884 5884 5883 5883 5882 5881 5880 5879 5879 5878 5878 5877 5877
5924 5924 5924 5924 5923 5923 5923 5923 5922 5920 5919 5918 5917 5915 5914 5912 5910 5909 5907 5905 5904 5903 5901 5900 5898 5897 5896 5895 5893 5892 5891 5890 5889 5888 5887 5886 5885 5885 5884 5883 5882 5881 5880 5879 5879 5879 5878 5877 5877
5925 5925 5925 5925 5924 5924 5925 5924 5923 5922 5921 5919 5918 5917 5915 5913 5912 5910 5908 5907 5905 5904 5903 5901 5900 5899 5897 5896 5895 5893 5892 5891 5890 5889 5888 5887 5886 5885 5885 5884 5883 5882 5881 5880 5879 5879 5878 5878 5877
5926 5926 5926 5926 5925 5925 5927 5925 5924 5922 5922 5921 5919 5918 5916 5915 5913 5911 5910 5908 5907 5905 5904 5903 5901 5900 5899 5898 5896 5895 5894 5893 5891 5890 5889 5888 5887 5886 5885 5884 5883 5882 5881 5880 5880 5879 5878 5878 5877
5926 5926 5926 5927 5926 5926 5926 5925 5924 5923 5923 5922 5921 5919 5917 5916 5914 5912 5911 5909 5908 5906 5905 5904 5903 5901 5900 5899 5898 5896 5895 5894 5892 5891 5890 5889 5888 5887 5886 5885 5884 5883 5882 5881 5880 5879 5878 5878 5877
5927 5927 5926 5927 5926 5926 5926 5926 5925 5924 5923 5923 5921 5920 5918 5917 5915 5914 5912 5911 5909 5908 5906 5905 5904 5902 5901 5900 5899 5897 5896 5895 5894 5892 5891 5890 5889 5888 5887 5886 5885 5883 5882 5881 5880 5879 5878 5878 5877
5926 5926 5926 5926 5926 5926 5926 5926 5926 5925 5924 5923 5922 5921 5919 5917 5916 5914 5913 5912 5910 5909 5907 5906 5904 5903 5902 5901 5900 5898 5897 5896 5894 5893 5892 5891 5890 5889 5887 5886 5885 5883 5882 5881 5880 5879 5878 5877 5876
5925 5926 5926 5926 5926 5926 5926 5926 5925 5925 5924 5923 5922 5921 5919 5918 5916 5915 5913 5912 5911 5909 5908 5906 5905 5904 5903 5902 5900 5899 5898 5897 5895 5894 5893 5892 5890 5889 5888 5886 5885 5884 5882 5881 5880 5879 5877 5876 5875
5924 5925 5926 5925 5925 5925 5925 5925 5925 5925 5924 5923 5922 5921 5920 5918 5916 5915 5914 5912 5911 5910 5908 5907 5905 5904 5903 5902 5901 5900 5899 5897 5896 5895 5893 5892 5890 5889 5888 5886 5885 5884 5882 5881 5880 5878 5877 5875 5874
5923 5925 5925 5925 5925 5925 5925 5924 5924 5923 5923 5922 5921 5920 5919 5918 5916 5915 5914 5912 5911 5910 5908 5907 5906 5905 5903 5902 5901 5900 5899 5898 5897 5895 5894 5892 5891 5889 5888 5886 5885 5883 5882 5881 5879 5877 5875 5874 5872
5922 5923 5923 5923 5923 5923 5923 5923 5924 5922 5922 5921 5920 5919 5918 5917 5916 5915 5913 5912 5911 5910 5908 5907 5906 5904 5903 5902 5901 5900 5899 5898 5897 5895 5894 5892 5891 5889 5887 5885 5884 5882 5881 5879 5877 5876 5874 5872 5870
5920 5921 5921 5921 5921 5922 5922 5922 5922 5921 5920 5919 5918 5918 5917 5916 5915 5914 5913 5912 5911 5910 5909 5907 5906 5904 5903 5902 5901 5900 5899 5898 5897 5895 5894 5892 5890 5889 5887 5885 5883 5881 5880 5878 5876 5874 5872 5870 5868
5918 5919 5920 5920 5919 5919 5920 5919 5921 5919 5918 5918 5917 5917 5916 5915 5914 5913 5912 5911 5910 5909 5908 5907 5905 5904 5903 5902 5901 5900 5899 5897 5896 5894 5893 5891 5890 5888 5886 5884 5882 5880 5878 5876 5874 5872 5870 5868 5866
5916 5917 5918 5918 5917 5917 5917 5917 5918 5917 5916 5916 5916 5915 5915 5914 5913 5912 5911 5910 5910 5908 5907 5906 5905 5903 5903 5902 5901 5899 5898 5896 5895 5893 5892 5890 5888 5886 5885 5883 5881 5879 5877 5875 5873 5870 5867 5865 5863
5913 5914 5915 5915 5914 5914 5914 5915 5915 5914 5914 5914 5914 5913 5913 5912 5911 5910 5910 5909 5908 5907 5906 5905 5903 5902 5901 5900 5899 5898 5896 5895 5893 5892 5890 5889 5887 5885 5883 5881 5879 5877 5875 5873 5870 5868 5866 5863 5861
5910 5911 5912 5912 5912 5911 5912 5912 5913 5912 5912 5911 5911 5911 5911 5910 5910 5909 5908 5907 5907 5906 5905 5904 5902 5901 5899 5898 5897 5895 5894 5893 5891 5890 5888 5887 5885 5883 5881 5878 5876 5874 5872 5870 5868 5865 5863 5861 5858
5907 5908 5908 5908 5909 5909 5908 5911 5910 5909 5909 5909 5909 5909 5909 5908 5908 5907 5906 5905 5905 5904 5903 5902 5900 5899 5897 5896 5894 5893 5891 5890 5889 5887 5885 5884 5882 5880 5878 5876 5874 5872 5870 5867 5865 5863 5860 5858 5855
5903 5904 5905 5906 5906 5906 5906 5909 5907 5907 5906 5906 5906 5906 5906 5906 5905 5905 5904 5903 5902 5901 5900 5899 5897 5896 5894 5893 5891 5889 5888 5887 5885 5884 5882 5881 5879 5877 5875 5873 5871 5869 5867 5864 5862 5860 5857 5854 5852